Terminal Aerodrome Forecast
Issued by NWS Des Moines, IA

Home | Current Version | Previous Version | Text Only | Print | Product List | Glossary On
Versions: 1 2 3 4 5 6 7 8 9 10 11 12 13 14 15 16 17 18 19 20 21 22 23 24 25 26 27 28 29 30 31 32 33 34 35 36 37 38
000
FTUS43 KDMX 290709 AAA
TAFDSM
TAF AMD
KDSM 290709Z 2907/3006 32022G31KT P6SM SCT008 OVC014
     FM290900 33029G39KT 6SM BR OVC008
     FM291600 33021G30KT P6SM BKN016
     FM292300 33015KT P6SM SCT025=

USA.gov is the U.S. government's official web portal to all federal, state and local government web resources and services.